Regional Weather Roundup
Issued by NWS Grand Forks, ND

Home | Current Version | Previous Version | Graphics & Text | Print | Product List | Glossary On
Versions: 1 2 3 4 5 6 7 8 9 10 11 12 13 14 15 16 17 18 19 20 21 22 23 24 25 26 27 28 29 30 31 32 33 34 35 36 37 38 39 40 41 42 43 44 45 46 47 48 49 50
000
ASUS43 KFGF 020831
RWRFGF
PRAIRIE TO PINES  WEATHER ROUNDUP
NATIONAL WEATHER SERVICE EASTERN NORTH DAKOTA/GRAND FORKS ND
300 AM CDT WED SEP 02 2015

 **SATELLITE DATA USED TO AUGMENT SKY COVER AT AUTOMATED STATIONS**
 *****  WEATHER ACROSS EASTERN NORTH DAKOTA  *****

CITY           SKY/WX    TMP DP  RH WIND       PRES   REMARKS
GRAND FORKS    CLEAR     65  60  84 SE6       29.81S
GRAND FRKS AFB CLEAR     63  59  87 S3        29.81S
GRAND FRKS NWS   N/A     66 N/A N/A S3          N/A
DEVILS LAKE    PTCLDY    68  61  77 SE6       29.79S
FARGO          CLEAR     73  69  87 S12       29.83R
WAHPETON ARPT  SUNNY     68  63  83 SE8       29.85S
$$

 ***** WEATHER ACROSS CENTRAL AND WESTERN NORTH DAKOTA  *****

CITY           SKY/WX    TMP DP  RH WIND       PRES   REMARKS
BISMARCK       CLEAR     67  64  90 E8        29.78F
MINOT          CLEAR     64  59  83 CALM      29.77S
JAMESTOWN      CLEAR     68  64  87 S8        29.81S
MINOT AFB      CLEAR     62  61  95 SE5       29.76S
GARRISON         N/A     63  60  90 CALM      29.78S
WILLISTON      CLEAR     55  44  66 N3        29.78S
DICKINSON      CLEAR     58  54  86 CALM      29.80S
HETTINGER      CLEAR     53  49  86 CALM      29.83S
$$

 *****  OTHER AIRPORT OBSERVATIONS IN OUR AREA  *****

CITY           SKY/WX    TMP DP  RH WIND       PRES   REMARKS
WALHALLA       FAIR      63  63 100 MISG      29.79F
GRAFTON AIRPOR FAIR      64  63  94 SE7       29.81F
VALLEY CITY AR FAIR      66  66 100 S6        29.83S
CANDO          FAIR      64  63  94 SE8       29.80S
CAVALIER APRT  FAIR      59  55  88 CALM      29.80F
GWINNER          N/A     66  66 100 SE6       29.84S
SHEYENNE NWR     N/A     68  68  99 S5        29.95S
ROLLA          FAIR      63  63 100 SW8       29.81S
 ***** THE ABOVE OBSERVATIONS ARE NON NWS ARE NOT QUALITY
       CONTROLLED AND MAY MIS-REPORT RAIN FOR SNOW...
$$

  *****  WEATHER ACROSS NORTHERN MINNESOTA  *****

CITY           SKY/WX    TMP DP  RH WIND       PRES   REMARKS
FLAG ISLAND    CLEAR     68  63  83 SE6       29.86S
WARROAD        CLEAR     61  57  88 S5        29.87S
ROSEAU         CLEAR     61  55  82 S5        29.85S
HALLOCK        CLEAR     66  59  77 SE8       29.81S
THF RVR FALLS  CLEAR     64  61  88 E7        29.85S
BAUDETTE       CLEAR     58  54  86 SE5       29.88S
WASKISH        CLEAR     63  55  77 SE5       29.89S
CROOKSTON      CLEAR     64  63  94 SE5       29.83S
STEPHEN NDAWN    N/A     66  63  88 SE7         N/A
GREENBUSH NDAW   N/A     63  59  88 S5          N/A
$$
  *****  WEATHER ACROSS CENTRAL AND WEST MINNESOTA  *****

CITY           SKY/WX    TMP DP  RH WIND       PRES   REMARKS
FOSSTON        CLEAR     63  57  82 SE5       29.87S
BEMIDJI        CLEAR     64  61  91 CALM      29.90S
PARK RAPIDS    PTCLDY    68  65  90 SE3       29.90S
ELBOW LAKE     FAIR      66  64  90 SE9       29.86F
WADENA         MOCLDY    66  64  94 CALM      29.90S FOG
DETROIT LAKES  CLEAR     68  68 100 SE6       29.89S FOG
MOORHEAD       CLEAR     70  70 100 S8        29.84S FOG
FERGUS FALLS   CLEAR     70  68  94 S10       29.86S
MORRIS MN      PTCLDY    63  63 100 E6        29.86F
STAPLES        MOCLDY    66  64  94 CALM      29.90S FOG
$$
  *****  WEATHER ELSEWHERE ACROSS MINNESOTA  *****

CITY           SKY/WX    TMP DP  RH WIND       PRES   REMARKS
DULUTH         CLOUDY    71  68  90 E7        29.92F FOG
INTRNTL FALLS  CLEAR     51  51 100 SE3       29.91S
ELY            PTCLDY    54  52  94 CALM      29.95S
CLOQUET        CLOUDY    70  68  94 SE3       29.93S THUNDER FOG
WHEATON        CLEAR     63  61  94 SE5       29.86S
BRAINERD       CLOUDY    72  68  87 SE3       29.91F
HIBBING        PTCLDY    62  59  90 CALM      29.93S
ALEXANDRIA     MOCLDY    70  66  87 SW10      29.91F
SAINT CLOUD    LGT RAIN  73  73 100 SE10      29.89F FOG
MINNEAPOLIS    LGT RAIN  76  72  87 SW8       29.93R FOG
$$

  *****  WEATHER ACROSS SOUTH DAKOTA  *****

CITY           SKY/WX    TMP DP  RH WIND       PRES   REMARKS
SIOUX FALLS    CLEAR     71  67  87 S7        29.84F
BROOKINGS      CLEAR     64  61  88 E9        29.87F
WATERTOWN      CLEAR     67  61  81 SE12      29.86F
HURON          CLEAR     69  69 100 E9        29.80F FOG
SISSETON         N/A     64  62  93 S3        29.84S
ABERDEEN       CLEAR     64  62  93 SE6       29.81F
MITCHELL       CLEAR     68  67  96 S5        29.81S FOG
PIERRE         FOG       62  62 100 CALM      29.76S VSB 1/4
MOBRIDGE       CLEAR     66  66 100 E7        29.77S
RAPID CITY     CLEAR     57  51  80 NW7       29.86F
$$

  *****  SOME WEATHER IN NEARBY STATES *****

CITY           SKY/WX    TMP DP  RH WIND       PRES   REMARKS
GLASGOW MT     CLEAR     60  41  49 E14       29.74F
GREAT FALLS MT PTCLDY    53  32  44 W6        29.74F
CHEYENNE WY    PTCLDY    61  40  45 W7        30.12F
SCOTTSBLUFF NE PTCLDY    58  52  80 MISG      29.97R
OMAHA NE       PTCLDY    76  68  76 S16       29.89F
DES MOINES IA  TSTM      75  68  78 S12       29.96F
DAVENPORT IA   CLEAR     71  68  90 S5        30.02S
CHICAGO IL     PTCLDY    74  69  85 SW5       30.02S
EAU CLAIRE WI  MOCLDY    74  71  91 S3        29.93S
LA CROSSE WI   PTCLDY    76  72  87 SE5       29.94F
$$

  *****  SOME NATIONAL WEATHER *****

CITY           SKY/WX    TMP DP  RH WIND       PRES   REMARKS
LA GUARDIA NY  CLEAR     76  65  68 CALM      30.02F
RALEIGH NC     PTCLDY    69  66  90 CALM      30.06F
ATLANTA GA     PTCLDY    74  68  81 CALM      30.11S
NEW ORLEANS LA CLOUDY    80  72  76 NE6       30.02F
OKLAHOMA CITY  PTCLDY    70  64  81 SE9       30.03S
ALBUQUERQUE NM PTCLDY    71  44  37 S6        30.18F
SALT LAKE CITY MOCLDY    79  42  26 S21G31    29.93R
LOS ANGELES CA MOCLDY    69  62  78 VRB5      29.97R
BOISE ID       PTCLDY    70  38  31 SE9       29.75S
SEATTLE WA     CLOUDY    57  54  89 S12       29.81S
$$

*** WEATHER ACROSS MANITOBA...SASKATCHEWAN AND ONTARIO ***
                ***ONTARIO***

CITY           SKY/WX    TMP DP  RH WIND       PRES   REMARKS
GERALDTON      PTCLDY    57  55  94 W3        29.92S
THUNDER BAY    PTCLDY    54  52  94 W3        29.94S
SIOUX LOOKOUT  CLEAR     52  52 100 CALM      29.93R
TORONTO        CLEAR     70  64  83 NW2       30.02F
BIG TROUT LK   CLEAR     52  50  93 E6        29.88S
PICKLE LAKE    NOT AVBL
DRYDEN         CLEAR     63  54  72 S7        29.92R
KENORA         CLEAR     64  55  72 S7        29.89R
$$
                *** MANITOBA***

CITY           SKY/WX    TMP DP  RH WIND       PRES   REMARKS
BRANDON        CLEAR     59  55  88 N6        29.77S
DAUPHIN        CLEAR     64  59  82 SW9       29.72F
ISLAND LAKE    PTCLDY    59  57  94 SE5       29.79S
PILOT MOUND      N/A     64  59  82 S8          N/A
THE PAS        CLEAR     59  50  72 W6        29.72
THOMPSON       MOCLDY    55  54  94 E3        29.74
WINNIPEG       CLEAR     66  55  68 S12       29.80S
LYNN LAKE      MOCLDY    57  57 100 W8        29.70R
CHURCHILL      CLOUDY    48  46  93 SE14      29.87R
$$
                ***SASKATCHEWAN***

CITY           SKY/WX    TMP DP  RH WIND       PRES   REMARKS
ESTEVAN        PTCLDY    55  46  71 E8        29.78R
KINDERSLEY     MOCLDY    59  41  51 E15       29.66F
LLOYDMINSTER   CLOUDY    50  43  76 NE8       29.69S
PRINCE ALBERT  MOCLDY    48  45  87 E5        29.74S
REGINA         PTCLDY    50  45  81 SE9       29.77S
YORKTON        CLEAR     55  50  82 SW6       29.76F
N. BATTLEFORD  CLEAR     54  41  62 E12       29.70F
LA RONGE       CLEAR     50  41  71 NE5       29.76F
SASKATOON      PTCLDY    55  43  62 E6        29.74F
SWIFT CURRENT  CLEAR     55  41  58 SE13      29.71F
$$
NOTE: THESE ARE AUTOMATED STATIONS WITH LIMITED QUALITY CONTROL
      "FAIR" INDICATES FEW OR NO CLOUDS BELOW 12,000 FEET WITH NO
      SIGNIFICANT WEATHER AND/OR OBSTRUCTIONS TO VISIBILITY.
      SKY/WX - SKY CONDITION AND SIGNIFICANT WEATHER.
      TMP - AIR TEMPERATURE.    DP   - DEWPOINT TEMPERATURE.
      RH  - RELATIVE HUMIDITY.  PRES - PRESSURE.
      HX  - HEAT INDEX.         WCI  - WIND CHILL INDEX.
$


USA.gov is the U.S. government's official web portal to all federal, state and local government web resources and services.